VK3CG Weather Reports


time (UTC)temp
C
wind
direction
speed
KPH
gust
KPH
rain 1hr
cm
rain 24hr
cm
rain mn
cm
humidity
%
barometer
mb
20260504081502 11 304 1.6 6.4 0.05 0.05 0.05 68 1023.0
20260504050128 12 5 3.2 11.3 0.00 0.03 0.00 65 1021.5
20260504044558 12 360 3.2 16.1 0.00 0.03 0.00 63 1021.4
20260504043100 12 29 3.2 14.5 0.00 0.03 0.00 63 1021.2
20260504041554 12 41 8.0 14.5 0.00 0.03 0.00 63 1021.3
20260504034553 12 31 4.8 9.7 0.00 0.15 0.00 63 1021.6
20260504033049 12 34 4.8 9.7 0.00 0.15 0.00 62 1021.9
20260504031605 12 30 4.8 9.7 0.00 0.15 0.00 62 1022.1
20260504030047 12 21 3.2 14.5 0.00 0.38 0.00 62 1022.2
20260504024547 12 36 4.8 12.9 0.00 0.38 0.00 62 1022.2
20260504023046 12 24 3.2 14.5 0.00 0.38 0.00 61 1022.4
20260504021545 12 355 4.8 16.1 0.00 0.38 0.00 60 1022.8
20260504020043 12 355 4.8 16.1 0.00 0.51 0.00 62 1022.8
20260504014544 12 197 4.8 19.3 0.00 0.51 0.00 61 1023.2
20260504013042 12 16 3.2 20.9 0.00 0.51 0.00 63 1023.2
20260504011544 11 340 4.8 14.5 0.00 0.51 0.00 62 1023.4
20260504010043 12 318 3.2 16.1 0.00 1.19 0.00 62 1023.4
20260504004536 11 311 4.8 16.1 0.00 1.19 0.00 64 1023.3
20260504003041 11 306 3.2 12.9 0.00 1.19 0.00 66 1023.3
20260504001529 10 324 1.6 8.0 0.00 1.19 0.00 67 1023.4
20260504000025 10 5 3.2 9.7 0.00 2.24 0.00 68 1023.6
20260503234526 10 341 3.2 19.3 0.00 2.24 0.00 69 1023.6
20260503233021 10 350 1.6 8.0 0.00 2.24 0.00 69 1023.7
20260503231521 10 22 4.8 12.9 0.00 2.24 0.00 70 1023.6
20260503230024 9 24 3.2 14.5 0.00 2.49 0.00 70 1023.6
20260503224518 9 27 3.2 9.7 0.00 2.49 0.00 70 1023.6
20260503223023 9 21 3.2 12.9 0.00 2.49 0.00 70 1023.5
20260503221516 9 17 1.6 8.0 0.00 2.49 0.00 70 1023.6
20260503220028 9 23 3.2 9.7 0.00 2.57 0.00 69 1023.2
20260503214510 9 5 3.2 9.7 0.00 2.57 0.00 70 1023.0
20260503213008 8 40 3.2 6.4 0.00 2.57 0.00 70 1023.2
20260503211506 8 34 3.2 9.7 0.00 2.57 0.00 71 1023.3
20260503210012 8 33 3.2 6.4 0.00 2.67 0.00 70 1023.2
20260503204504 8 30 3.2 6.4 0.00 2.67 0.00 70 1023.0
20260503203007 8 32 1.6 8.0 0.00 2.67 0.00 70 1022.7
20260503201503 9 13 1.6 8.0 0.00 2.67 0.00 71 1022.7
20260503200002 9 36 3.2 8.0 0.00 2.82 0.00 72 1022.9
20260503194501 9 32 3.2 8.0 0.00 2.82 0.00 72 1022.5
20260503193101 9 325 3.2 8.0 0.00 2.82 0.00 73 1022.3
20260503191606 8 5 3.2 6.4 0.00 2.82 0.00 75 1022.5
20260503190058 8 5 1.6 6.4 0.00 2.84 0.00 75 1022.7
20260503184621 8 5 3.2 6.4 0.00 2.84 0.00 75 1022.7
20260503183104 8 360 3.2 6.4 0.00 2.84 0.00 75 1023.0
20260503181554 8 15 0.0 0.0 0.00 2.84 0.00 76 1023.0
20260503180052 8 13 0.0 0.0 0.00 3.00 0.00 75 1023.1
20260503174609 8 11 0.0 0.0 0.00 3.00 0.00 76 1023.1
20260503173107 8 11 0.0 0.0 0.00 3.00 0.00 75 1023.2
20260503171550 8 11 0.0 0.0 0.00 3.00 0.00 76 1023.3